Date String (YYYY-MM-DD hh:mm:ss) UTC,Instrument flags,absolute air pressure of the measurement (hPa),sample flow rate (lpm),inlet stack bypass flow (lpm),air temperature of the measurement (°C),ambient temperature measured by the external sensor (°C),aerosol sample conditioner tube jacket temperature (°C),OPC LED temperature (°C),internal box temperature (°C),relative humidity of the measurement (%),span deviation,mass concentration of particles derived from Lorenz-Mie calculation of OPC scattering (μg/m³),mass concentration of particles derived from Lorenz-Mie calculation of OPC scattering (μg/m³),mass concentration of particles derived from Lorenz-Mie calculation of OPC scattering (μg/m³)
DateTimeUTC,F1_M11,P_M11,Q1_M11,Q2_M11,T1_M11,T2_M11,T3_M11,T4_M11,T5_M11,U1_M11,ZSPAN_M11,X0_M11,X2_M11,X1_M11
2024-01-05 06:00:00,SystemResetWarning,0824.9,5.00,000.00,018.6,017.6,000.0,027.1,020.0,17.6,0001.0,0010.91,0006.51,0006.08
2024-01-05 06:01:00,SystemResetWarning,0824.9,5.00,000.00,018.6,017.7,000.0,027.1,020.0,17.6,0000.8,0010.22,0006.40,0006.00
2024-01-05 06:02:00,SystemResetWarning,0824.9,5.00,000.00,018.6,017.7,000.0,027.1,020.0,17.5,0000.8,0009.54,0006.30,0005.93
2024-01-05 06:03:00,SystemResetWarning,0824.9,4.99,000.00,018.6,017.6,000.0,027.1,020.1,17.4,0000.9,0009.20,0006.24,0005.89
2024-01-05 06:04:00,SystemResetWarning,0824.9,5.00,000.00,018.7,018.1,000.0,027.1,020.4,17.4,0001.0,0008.98,0006.20,0005.84
2024-01-05 06:05:00,SystemResetWarning,0824.9,5.02,000.00,018.8,018.7,000.0,027.1,020.7,17.3,0001.0,0009.03,0006.20,0005.80
2024-01-05 06:06:00,SystemResetWarning,0824.9,5.00,000.00,018.9,018.7,000.0,027.1,020.4,17.2,0000.8,0009.03,0006.18,0005.78
2024-01-05 06:07:00,SystemResetWarning,0824.9,4.99,000.00,018.9,018.7,000.0,027.1,020.2,17.1,0001.1,0009.66,0006.16,0005.78
2024-01-05 06:08:00,SystemResetWarning,0824.9,5.00,000.00,018.9,018.6,000.0,027.1,020.1,17.2,0001.3,0009.95,0006.18,0005.77
2024-01-05 06:09:00,SystemResetWarning,0824.9,5.01,000.00,018.8,018.5,000.0,027.1,020.1,17.2,0001.4,0010.22,0006.18,0005.76
2024-01-05 06:10:00,SystemResetWarning,0824.9,5.00,000.00,018.8,018.4,000.0,027.1,020.0,17.1,0001.4,0011.17,0006.20,0005.74
2024-01-05 06:11:00,SystemResetWarning,0824.8,5.01,000.00,018.8,018.3,000.0,027.1,020.0,17.1,0001.1,0011.25,0006.17,0005.72
2024-01-05 06:12:00,SystemResetWarning,0824.9,5.00,000.00,018.8,018.2,000.0,027.1,020.0,17.1,0001.2,0011.21,0006.10,0005.65
2024-01-05 06:13:00,SystemResetWarning,0824.9,5.00,000.00,018.8,018.2,000.0,027.1,020.0,17.1,0001.6,0011.18,0006.04,0005.57
2024-01-05 06:14:00,SystemResetWarning,0824.9,5.00,000.00,018.8,018.1,000.0,027.2,020.0,17.2,0001.5,0011.65,0005.98,0005.49
2024-01-05 06:15:00,SystemResetWarning,0824.9,5.00,000.00,018.8,018.1,000.0,027.1,020.0,17.3,0001.6,0012.07,0005.91,0005.44
2024-01-05 06:16:00,SystemResetWarning,0824.9,5.00,000.00,018.8,018.0,000.0,027.1,020.0,17.3,0002.0,0011.98,0005.83,0005.39
2024-01-05 06:17:00,SystemResetWarning,0824.9,5.00,000.00,018.7,018.0,000.0,027.1,020.0,17.3,0002.1,0011.75,0005.73,0005.32
2024-01-05 06:18:00,SystemResetWarning,0824.9,5.00,000.00,018.7,018.0,000.0,027.1,020.0,17.3,0001.9,0011.67,0005.69,0005.27
2024-01-05 06:19:00,SystemResetWarning,0824.8,5.00,000.00,018.7,017.9,000.0,027.1,020.0,17.3,0001.6,0011.54,0005.65,0005.23
2024-01-05 06:20:00,SystemResetWarning,0824.9,5.00,000.00,018.7,017.9,000.0,027.1,020.0,17.3,0001.1,0012.02,0005.59,0005.20
2024-01-05 06:21:00,SystemResetWarning,0824.9,5.00,000.00,018.7,017.9,000.0,027.1,020.0,17.3,0001.2,0011.25,0005.52,0005.16
2024-01-05 06:22:00,SystemResetWarning,0824.9,5.00,000.00,018.7,017.9,000.0,027.1,020.0,17.2,0001.5,0010.92,0005.49,0005.14
2024-01-05 06:23:00,SystemResetWarning,0824.9,5.00,000.00,018.7,017.9,000.0,027.1,020.0,17.2,0001.9,0010.95,0005.50,0005.14
2024-01-05 06:24:00,SystemResetWarning,0824.9,4.99,000.00,018.7,017.9,000.0,027.1,020.0,17.2,0001.6,0010.94,0005.51,0005.15
2024-01-05 06:25:00,SystemResetWarning,0824.9,5.01,000.00,018.7,017.8,000.0,027.1,020.0,17.3,0001.6,0010.67,0005.51,0005.17
2024-01-05 06:26:00,SystemResetWarning,0824.9,5.01,000.00,018.7,017.8,000.0,027.1,020.0,17.3,0001.6,0009.96,0005.53,0005.16
2024-01-05 06:27:00,SystemResetWarning,0824.9,5.00,000.00,018.7,017.8,000.0,027.1,020.0,17.4,0001.3,0009.88,0005.50,0005.16
2024-01-05 06:28:00,SystemResetWarning,0824.9,5.00,000.00,018.7,017.8,000.0,027.1,020.0,17.4,0001.0,0009.89,0005.50,0005.16
2024-01-05 06:29:00,SystemResetWarning,0824.9,5.00,000.00,018.7,017.8,000.0,027.1,020.0,17.4,0000.9,0009.82,0005.53,0005.17
2024-01-05 06:30:00,SystemResetWarning,0824.9,5.00,000.00,018.7,017.8,000.0,027.1,020.0,17.4,0001.2,0009.34,0005.55,0005.18
2024-01-05 06:31:00,SystemResetWarning,0824.8,5.00,000.00,018.7,017.8,000.0,027.1,020.0,17.3,0001.2,0008.97,0005.58,0005.19
2024-01-05 06:32:00,SystemResetWarning,0824.8,5.00,000.00,018.7,017.8,000.0,027.1,020.0,17.3,0001.5,0009.00,0005.68,0005.23
2024-01-05 06:33:00,SystemResetWarning,0824.8,4.99,000.00,018.7,017.8,000.0,027.1,020.0,17.2,0001.4,0009.14,0005.77,0005.28
2024-01-05 06:34:00,SystemResetWarning,0824.8,5.00,000.00,018.7,017.8,000.0,027.1,020.0,17.2,0001.6,0009.51,0005.83,0005.33
2024-01-05 06:35:00,SystemResetWarning,0824.8,5.00,000.00,018.7,017.8,000.0,027.1,020.0,17.0,0001.8,0009.72,0005.88,0005.38
2024-01-05 06:36:00,SystemResetWarning,0824.8,5.00,000.00,018.7,017.8,000.0,027.1,020.0,17.0,0001.6,0009.86,0005.91,0005.40
2024-01-05 06:37:00,SystemResetWarning,0824.8,5.01,000.00,018.7,017.8,000.0,027.1,020.0,17.0,0001.9,0009.76,0005.92,0005.43
2024-01-05 06:38:00,SystemResetWarning,0824.7,5.00,000.00,018.7,017.8,000.0,027.1,020.0,17.1,0002.0,0009.87,0005.96,0005.46
2024-01-05 06:39:00,SystemResetWarning,0824.8,5.00,000.00,018.7,017.8,000.0,027.1,020.0,17.1,0002.0,0009.91,0005.96,0005.46
2024-01-05 06:40:00,SystemResetWarning,0824.7,5.00,000.00,018.7,017.8,000.0,027.1,020.0,17.1,0002.3,0009.81,0005.91,0005.44
2024-01-05 06:41:00,SystemResetWarning,0824.7,5.00,000.00,018.7,017.8,000.0,027.1,020.0,17.1,0002.3,0009.67,0005.87,0005.43
2024-01-05 06:42:00,SystemResetWarning,0824.7,5.00,000.00,018.7,017.7,000.0,027.1,020.0,17.2,0002.5,0009.58,0005.83,0005.41
2024-01-05 06:43:00,SystemResetWarning,0824.7,5.00,000.00,018.7,017.7,000.0,027.1,020.0,17.3,0002.7,0009.26,0005.74,0005.37
2024-01-05 06:44:00,SystemResetWarning,0824.7,4.99,000.00,018.7,017.7,000.0,027.1,020.0,17.3,0002.5,0008.95,0005.64,0005.32
2024-01-05 06:45:00,SystemResetWarning,0824.7,5.00,000.00,018.7,017.7,000.0,027.1,020.0,17.3,0002.1,0008.57,0005.56,0005.26
2024-01-05 06:46:00,SystemResetWarning,0824.7,5.00,000.00,018.7,017.7,000.0,027.1,020.0,17.3,0002.0,0008.39,0005.49,0005.21
2024-01-05 06:47:00,SystemResetWarning,0824.7,5.00,000.00,018.7,017.7,000.0,027.1,020.0,17.4,0002.2,0008.29,0005.47,0005.18
2024-01-05 06:48:00,SystemResetWarning,0824.7,5.00,000.00,018.7,017.7,000.0,027.1,020.0,17.4,0002.0,0008.40,0005.49,0005.15
2024-01-05 06:49:00,SystemResetWarning,0824.7,5.00,000.00,018.7,017.7,000.0,027.1,020.0,17.4,0002.2,0008.36,0005.48,0005.15
2024-01-05 06:50:00,SystemResetWarning,0824.7,5.01,000.00,018.7,017.7,000.0,027.1,020.0,17.4,0002.2,0008.37,0005.51,0005.16
2024-01-05 06:51:00,SystemResetWarning,0824.7,5.01,000.00,018.7,017.6,000.0,027.1,020.0,17.4,0001.7,0008.32,0005.52,0005.16
2024-01-05 06:52:00,SystemResetWarning,0824.7,5.00,000.00,018.7,017.6,000.0,027.1,020.0,17.4,0001.2,0008.35,0005.54,0005.17
2024-01-05 06:53:00,SystemResetWarning,0824.7,5.00,000.00,018.7,017.6,000.0,027.1,020.0,17.4,0000.8,0008.40,0005.55,0005.18
2024-01-05 06:54:00,SystemResetWarning,0824.7,4.99,000.00,018.7,017.6,000.0,027.1,020.0,17.4,0000.8,0008.38,0005.54,0005.17
2024-01-05 06:55:00,SystemResetWarning,0824.7,5.00,000.00,018.7,017.6,000.0,027.1,020.0,17.4,0001.0,0008.66,0005.57,0005.18
2024-01-05 06:56:00,SystemResetWarning,0824.7,5.00,000.00,018.7,017.6,000.0,027.1,020.0,17.5,0001.2,0009.60,0005.58,0005.19
2024-01-05 06:57:00,SystemResetWarning,0824.7,5.02,000.00,018.7,017.6,000.0,027.1,020.0,17.5,0001.2,0009.76,0005.60,0005.20
2024-01-05 06:58:00,SystemResetWarning,0824.7,5.00,000.00,018.7,017.6,000.0,027.1,020.0,17.5,0000.9,0010.02,0005.59,0005.21
2024-01-05 06:59:00,SystemResetWarning,0824.7,5.00,000.00,018.7,017.6,000.0,027.1,020.0,17.5,0001.2,0010.20,0005.54,0005.21
